Hourly Data Report for September 25, 2021

ATIKOKAN (AUT)
ONTARIO
Current Station Operator: ECCC - MSC

48°45'40.000" N
91°37'41.000" W
389.30 m
6020LPQ
71747
WCH

Download Data

Hourly Data (September 2021)
Hourly Data Report for September 25, 2021
TIME
LST
Temp Definition
°C
Dew Point Definition
°C
Rel Hum Definition
%
Precip. Amount Definition
mm

Wind Dir Definition
10's deg

Wind Spd Definition
km/h
Visibility Definition
km
Stn Press Definition
kPa
Hmdx Definition


Wind Chill Definition


Weather Definition


00:00 9.0 4.6 74 0.0 28 4   96.24     LegendNANA
01:00 8.7 5.1 78 0.0 26 3   96.21     LegendNANA
02:00 8.9 6.0 82 0.0 28 6   96.19     LegendNANA
03:00 8.7 6.5 86 0.0 28 6   96.16     LegendNANA
04:00 8.9 6.9 87 0.0 27 8   96.14     LegendNANA
05:00 8.8 6.9 87 0.0 25 7   96.13     LegendNANA
06:00 9.4 6.7 84 0.0 28 12   96.16     LegendNANA
07:00 9.3 6.5 83 0.0 29 9   96.21     LegendNANA
08:00 10.1 6.1 76 0.0 31 12   96.23     LegendNANA
09:00 10.4 5.5 72 0.0 31 13   96.26     LegendNANA
10:00 10.7 5.2 69 0.0 30 12   96.26     LegendNANA
11:00 11.6 5.6 67 0.0 31 9   96.22     LegendNANA
12:00 13.0 5.3 59 0.0 32 11   96.20     LegendNANA
13:00 13.4 6.1 61 0.0 30 9   96.16     LegendNANA
14:00 14.7 5.2 53 0.0 28 10   96.13     LegendNANA
15:00 15.0 5.2 52 0.0 27 11   96.11     LegendNANA
16:00 15.7 4.4 47 0.0 26 10   96.09     LegendNANA
17:00 14.0 5.2 55 0.0 25 8   96.12     LegendNANA
18:00 12.8 6.0 63 0.0 25 3   96.11     LegendNANA
19:00 11.6 6.9 73 0.0 24 2   96.11     LegendNANA
20:00 10.1 7.6 84 0.0   0   96.05     LegendNANA
21:00 9.6 7.7 88 0.0   0   96.03     LegendNANA
22:00 9.5 7.8 89 0.0 0 1   95.98     LegendNANA
23:00 9.2 7.9 92 0.0 6 2   95.92     LegendNANA

Notes on Data Quality.

Legend

  • E = Estimated
  • M = Missing
  • NA = Not Available*
  • [empty] = Indicates an unobserved value
Date modified: